Printer-friendly version

IAU Minor Planet Center

Minor Planet Center

MPEC 2007-U13 : 2007 UH

The following Minor Planet Electronic Circular may be linked-to from your own Web pages, but must not otherwise be redistributed electronically.


Read MPEC 2007-U12 Read MPEC 2007-U14


M.P.E.C. 2007-U13                                Issued 2007 Oct. 16, 23:12 UT

     The Minor Planet Electronic Circulars contain information on unusual
         minor planets and routine data on comets.  They are published
   on behalf of Commission 20 of the International Astronomical Union by the
          Minor Planet Center, Smithsonian Astrophysical Observatory,
                          Cambridge, MA 02138, U.S.A.

             Prepared using the Tamkin Foundation Computer Network

                              MPC@CFA.HARVARD.EDU
          URL http://www.cfa.harvard.edu/iau/mpc.html  ISSN 1523-6714

                                    2007 UH

Observations:
     K07U00H* C2007 10 16.32204 02 38 41.72 +16 20 02.0          20.1 V EU013691
     K07U00H  C2007 10 16.34316 02 38 41.02 +16 18 46.8          19.8 V EU013691
     K07U00H  C2007 10 16.36082 02 38 40.43 +16 17 43.4          19.6 V EU013691
     K07U00H tC2007 10 16.41525 02 38 38.59 +16 14 27.2                 EU013291
     K07U00H tC2007 10 16.41937 02 38 38.48 +16 14 11.6                 EU013291
     K07U00H tC2007 10 16.42372 02 38 38.36 +16 13 57.9                 EU013291
     K07U00H  C2007 10 16.45339 02 38 37.37 +16 12 08.7                 EU013291
     K07U00H  C2007 10 16.45726 02 38 37.25 +16 11 54.9                 EU013291
     K07U00H  C2007 10 16.46112 02 38 37.13 +16 11 40.4                 EU013291
     K07U00H  C2007 10 16.50320 02 38 35.87 +16 09 05.5                 EU013291
     K07U00H  C2007 10 16.50706 02 38 35.79 +16 08 53.0                 EU013291
     K07U00H  C2007 10 16.51093 02 38 35.65 +16 08 38.4                 EU013291
     K07U00H  C2007 10 16.85341 02 38 32.06 +15 47 36.5          20.3 R EU013113
     K07U00H  C2007 10 16.85562 02 38 31.97 +15 47 27.9                 EU013113
     K07U00H  C2007 10 16.85784 02 38 31.91 +15 47 19.9                 EU013113

Observer details:
113 Volkssternwarte Drebach, Schoenbrunn.  Observer G. Lehmann.  0.5-m f/5
    reflector + CCD.
291 LPL/Spacewatch II.  Observer R. S. McMillan.  1.8-m f/2.7 reflector + CCD.
691 Steward Observatory, Kitt Peak.  Observer R. S. McMillan.  0.9-m f/3
    reflector + CCD.

Orbital elements:
2007 UH                                                  Earth MOID = 0.0513 AU
Epoch 2007 Oct. 27.0 TT = JDT 2454400.5                 MPC
M 288.39652              (2000.0)            P               Q
n   0.78545877     Peri.  294.53674     -0.76605725     -0.63256354
a   1.1633770      Node   206.67521     +0.64222871     -0.74595327
e   0.3100091      Incl.   14.72422     +0.02643060     -0.20836769
P   1.25           H   22.1           G   0.15           U   9
Residuals in seconds of arc
071016 691  0.2-  0.3-    071016 291  0.5+  1.4+    071016 291  0.2+  0.5+
071016 691  0.1-  0.0     071016 291  0.1-  0.0     071016 291  0.2-  0.0
071016 691  0.0   0.1-    071016 291  0.0   0.3+    071016 113  0.3+  0.4+
071016 291  0.2-  0.0     071016 291  0.0   0.1-    071016 113  0.1-  0.2-
071016 291  0.2+  0.7-    071016 291  0.2-  1.2-    071016 113  0.1-  0.0

Ephemeris:
2007 UH                  a,e,i = 1.16, 0.31, 15                  q = 0.8027
Date    TT    R. A. (2000) Decl.     Delta      r     Elong.  Phase     V
2007 10 17    02 38.46   +15 39.0    0.221    1.208   161.0    15.6    20.1
2007 10 27    02 31.88   +01 51.4    0.169    1.159   167.2    10.9    19.2
2007 11 06    02 18.92   -19 16.4    0.141    1.109   144.5    31.3    19.4
2007 11 16    01 59.13   -42 48.4    0.140    1.057   115.7    57.5    20.0
2007 11 26    01 29.98   -61 29.7    0.159    1.005    92.1    78.9    20.9
2007 12 06    00 33.44   -74 21.3    0.186    0.955    75.2    94.0    21.7

Timothy B. Spahr             (C) Copyright 2007 MPC           M.P.E.C. 2007-U13

Read MPEC 2007-U12 Read MPEC 2007-U14


Our Web policy. Index to the CBAT/MPC/ICQ pages.


Valid HTML 4.01!